User: anonymous   Login
Location: Unspecified
(0.0000°N, 0.0000°E)
Time: 09:30:03
(UTC+00:00)
Language:

SDS-1 - Orbit

View from above orbital plane
View from above orbital plane
View from above satellite
View from above satellite

Ground track
Ground track

The orbit data is extracted from the following two-line orbital elements,

1 33497U 09002F   18018.47562308 +.00000060 +00000-0 +18508-4 0  9992
2 33497 098.3027 164.1234 0000781 312.6422 047.4717 14.70425642481811
Epoch (UTC): 18 January 2018 11:24:53
Eccentricity: 0.0000781
inclination: 98.3027°
perigee height: 659 km
apogee height: 660 km
right ascension of ascending node: 164.1234°
argument of perigee: 312.6422°
revolutions per day: 14.70425642
mean anomaly at epoch: 47.4717°
orbit number at epoch: 48181

The dashed part of the orbit path shows where the satellite is in the earth's shadow,  

DLR